Погода в Аспиндзе

Погода в Аспиндзе : погода сейчас, прогноз погоды и архив. Всё, что Вы хотите узнать о погоде в Аспиндзе!

Поиск расширенной информации на нашем сайте:

Полезная информация: как избавиться от целлюлита
ссангйонг кайрон ремонт

Другие новости

Новости СМИ2

Главная страница сайта

Новости сайта

02.10.2013

Напоминаем, что на нашем новом сайте вы можете получить высокодетализированные прогнозы погоды по пунктам России, СНГ и мира (включающие важные для авиации метеовеличины, такие как направление и скорость ветра, видимость, явления погоды, количество и форма облачности, нижняя и верхняя граница облачности), а также ознакомиться с разнообразными материалами по авиационной метеорологии и подборкой полезных ссылок на эту тему.

Сайт Метеоцентр.Азия посвящён разработке технологий оптимизации авиаметеорологического обслуживания, включая проектирование и перспективное создание нескольких автоматизированных авиаметеорологических систем:
- система выпуска высокодетальных прогностических карт явлений погоды для нижнего воздушного пространства по России и ближнему зарубежью;
- система верификации прогнозов TAF (выпускаемых синоптиками официальных АМСГ РФ и ближнего зарубежья) и AUTOTAF (выпускаемых сайтом Метеоцентр.Азия) - выявление ошибок, онлайн-сопоставление с фактической погодой METAR, автоматическое внесение коррективов в прогнозы при резком отклонении фактической погоды от прогноза, подсчёт оправдываемости прогнозов по элементам и в целом;
- система обработки, анализа и отображения авиаметеорологической информации для применения провайдерами метеорологической информации.

Рекомендуем: Например, при воспроизведении рекламные экраны в спб состоянии "покоя"

Погода в Аспиндзе - сегодня

Время (UTC), дата Ветер
(°,м/с) 
Видим.   Явления Облачность Т
(°С)
Тd
(°С)
f(%) Тe
(°С)
Pmin
(гПа)
dP
(гПа)
Po
(мм)
O2
(г/м3)
Тmin Tmax R s Состояние
почвы
21 21.03.17 тихо ()   4000 м    4/4 1000 м 
[Sc]
-1.4 -7 66 -1  1020.4  0.5  677  275           
00 22.03.17 тихо ()   4000 м    10/4 1000 м 
[Sc]
-1.4 -5.4 74 -1  1020.1  -0.3  676  274           
03 22.03.17 тихо ()   20000 м  в посл. час снег  10/8 1000 м 
[Sc]
-3.7 -5.5 87 -4  1019.1  -0.4  676  277      0.3   
06 22.03.17 тихо ()   20000 м  {снег}  3/3 1000 м 
[Sc]
+1.2 -0.8 86 +1  1019.9  1.3  677  272  -4.5    0.3     
09 22.03.17 270 (З) 20000 м    5/5 1000 м 
[Sc]
+7 -7.4 35 +5  1016.8  -0.5  677  266           
12 22.03.17 270 (З) 20000 м    5/5 1000 м 
[Sc]
+9 -7.1 31 +7  1015.9  677  264           
15 22.03.17 270 (З) 20000 м    8/8 1000 м верхняя 
[Sc|Ci fib]
+5.4 -8.1 37 +3  1018.9  1.2  678  268    +10.4       
18 22.03.17 270 (З) 4000 м    ясно 
-0.6 -8.9 53 -3  1021.8  0.1  678  274    +10.4       
21 22.03.17 тихо ()   4000 м    ясно 
-3.9 -8 73 -4  1024.9  1.4  679  278           
00 23.03.17 тихо ()   4000 м    ясно 
-5.7 -8.3 82 -6  1026.1  0.4  679  280           
03 23.03.17 тихо ()   20000 м    ясно 
-7 -9.1 85 -7  1028.2  1.2  680  282           
06 23.03.17 тихо ()   20000 м    ясно 
+0.4 -6.3 61 1025.9  1.1  681  274  -8         
09 23.03.17 270 (З) 20000 м    ясно 
+7 -6 39 +6  1020.9  -1.8  679  267           
12 23.03.17 тихо ()   20000 м    1/1 1000 м 
[Sc]
+10.6 -4.7 34 +11  1017.2  1.9  678  263           
15 23.03.17 090 (В) 20000 м    1/1 1000 м 
[Sc]
+7.5 -5.4 39 +7  1019.7  679  267    +11.5       
18 23.03.17 090 (В) 4000 м    ясно 
+0 -5.9 64 +1  1025.6  2.4  680  275    +11.5       
21 23.03.17 090 (В) 4000 м    ясно 
-3 -5.4 83 -3  1027.7  0.6  681  278           
00 24.03.17 тихо ()   4000 м    ясно 
-4.6 -6.1 89 -5  1029.7  1.1  682  280           
03 24.03.17 тихо ()   20000 м    1/1 1000 м 
[Sc]
-6.7 -7.3 95 -7  1030.7  -0.2  682  282           
06 24.03.17 тихо ()   20000 м    ясно 
+0.8 -4.5 68 +1  1029  1.7  683  275  -7.1         
09 24.03.17 тихо ()   20000 м    ясно 
+9.2 -3 42 +9  1022.6  2.3  681  266           
12 24.03.17 тихо ()   20000 м    ясно 
+13.5 -3.6 30 +14  1020.4  0.4  681  262           
15 24.03.17 тихо ()   20000 м    ясно 
+11 -3 37 +11  1020.5  -0.8  680  264    +13.6       
18 24.03.17 тихо ()   4000 м    ясно 
+2.8 -4.9 57 +3  1025.1  0.9  681  272    +13.6       
21 24.03.17 тихо ()   4000 м    ясно 
-0.8 -5 73 -1  1026.8  0.1  681  276           
Время (UTC), дата Ветер
(°,м/с) 
Видим.   Явления Облачность Т
(°С)
Тd
(°С)
f(%) Тe
(°С)
Pmin
(гПа)
dP
(гПа)
Po
(мм)
O2
(г/м3)
Тmin Tmax R s Состояние
почвы

Для получения пояснительной информации подведите курсор к названию столбца.

ПОГОДА в Аспиндзе - архив

Всё, что Вы хотите узнать о погоде в Аспиндзе - удобно и подробно!

Выберите нужную дату (начиная с 1 января 2015* года) и нажмите кнопку "Найти".
Будут отображены архивные сводки погоды по пункту Аспиндза, начиная с указанной даты.


Отображать данные в формате CSV (для использования в таблицах Excel)


Внимание! Наш архив погоды предназначен исключительно для личного некоммерческого использования в познавательных целях. Если Вам необходимы официальные справки о состоянии погоды (для производственных, юридических, коммерческих и т.п. целей), обращайтесь в органы Росгидромета.

*Примечание: данная дата относится к архиву по метеостанциям СССР (Россия, СНГ, Балтия).
Архив по метеостанциям Зарубежной Европы и Азии (кроме Китая) хранится 10 дней, по другим регионам земного шара (Китай, Африка, Америка, Австралия, Океания) - 1 день.

Аспиндза - район местоположения метеостанции


Название, широта, долгота, высота метеостанции:
Аспиндза 41.6°ш. 43.2°д. 983 м над ур. моря [Грузия]

Дополнительная информация

В oтличие oт бoльшинства пoгoдных сайтoв мы публикуем пoдрoбную метеoинфoрмацию в детальнoм прoфессиoнальнoм фoрмате.

Характеристики температуры и влажнoсти вoздуха измеряются на высoте 2 м в тени вдали oт зданий и деревьев.
Скoрoсть ветра измеряется на высoте 10 м (на урoвне рoста челoвека скoрoсть ветра ниже в 1.5-2 раза). Если метеoстанция нахoдится в гoрoде или в лесу, тo скoрoсть ветра занижена на 2-4 м/с пo сравнению с oткрытым местoм. Скoрoсть ветра над акватoриями крупных рек и oзёр, а также на вершинах хoлмoв на 2-5 м/с выше, чем в oбычных услoвиях.
Атмoсфернoе давление в разных тoчках местнoсти мoжет значительнo oтличаться oт давления на метеoстанции, в зависимoсти oт услoвий рельефа (при пoдъёме на 10 м давление пoнижается примернo на 1 мм рт.ст.).